CAPE
2374 2198 2133 2500 2580 2620 2498 2317 2453 2453 2496 2662 2680 2898 2888 2799 2653 2648 2625 2572 2453 2339 2302 2188 2103 2001 1936 1906 2034 1988 1884 1812 1785 1550 1441 1392 1384 1618 1622 1458 1455 1549 1650 1573 1586 1771 1797 1721 1735 1656 1643 1655 1562 1524 1412 1395 1406 1320 1342 1373 1448 1459 1363 1292 1232 1241 1052 923 852 855 706 683 761 795 871 936 1008 921 591 376 326 93 123 247 207
2521 1953 2365 2336 2520 2613 2542 2367 2462 2455 2422 2655 2598 2863 2869 2748 2648 2586 2549 2525 2443 2375 2248 2173 2008 1922 1794 1808 1968 1971 1858 1836 1773 1582 1447 1470 1584 1660 1581 1598 1558 1493 1542 1678 1666 1686 1652 1326 1209 1521 1505 1488 1489 1422 1504 1512 1461 1408 1370 1353 1259 1231 1250 1240 1382 1444 1101 922 974 892 911 805 826 840 882 968 868 703 513 402 301 132 216 320 296
2342 2073 2306 2368 2693 2654 2595 2612 2506 2412 2543 2457 2483 2798 2809 2706 2603 2506 2486 2396 2376 2330 2244 2040 1890 1869 1770 1764 1772 1868 1810 1799 1765 1613 1497 1575 1580 1661 1541 1447 1522 1541 1543 1627 1463 1385 1548 1813 1880 1950 1962 1831 1582 1498 1471 1494 1546 1352 1248 1336 1318 1236 1338 1396 1113 1174 1251 1106 1218 1137 1061 1039 947 796 762 720 602 394 364 468 366 331 250 335 333
2346 2266 2330 2614 2657 2625 2617 2647 2512 2420 2502 2492 2653 2794 2759 2612 2622 2563 2478 2446 2387 2314 2126 1967 1893 1810 1793 1790 1816 1804 1869 1818 1718 1518 1346 1702 1566 1515 1556 1447 1463 1607 1479 1363 1643 1923 1913 1961 1997 1954 1968 1990 1963 1927 1739 1589 1432 1352 1488 1433 1403 1346 1176 1228 1151 847 914 1129 1039 1168 947 682 817 953 868 728 612 423 432 520 407 364 378 315 423
2288 2332 2569 2437 2436 2651 2598 2659 2558 2468 2555 2454 2661 2738 2770 2772 2682 2634 2515 2419 2322 2206 2103 1903 1842 1811 1835 1852 1864 1950 1889 1781 1579 1470 1456 1643 1492 1474 1449 1486 1412 1399 1517 1676 1915 1904 1816 1783 1943 2045 2136 1974 1861 1930 1830 1857 1614 1519 1422 1399 1334 1404 1363 1192 1143 982 839 946 1228 1166 674 664 659 874 899 805 780 666 602 521 476 416 397 517 357
2288 2519 2402 2163 2210 2493 2621 2706 2604 2481 2508 2526 2573 2664 2690 2703 2646 2616 2496 2416 2296 2162 2044 1893 1818 1836 1886 1927 1937 1876 1870 1729 1523 1444 1537 1436 1524 1360 1435 1454 1338 1423 1796 1733 1841 1874 1925 1887 2003 2053 2242 2156 2064 2052 1992 1873 1927 1763 1658 1560 1301 1268 1372 1603 652 754 826 692 870 929 648 465 539 663 826 785 764 719 633 546 597 489 406 372 521
2420 2159 2207 2078 2113 2451 2548 2633 2559 2537 2426 2399 2398 2432 2548 2557 2573 2436 2426 2305 2170 2056 1981 1865 1860 1911 1912 1807 1925 1899 1817 1670 1533 1438 1295 1344 1473 1314 1369 1343 1429 1626 1660 1757 1741 1836 1980 1847 1685 1782 1982 1993 2047 1966 1964 2010 1943 1778 1757 1793 1755 1441 1504 1490 1246 751 893 794 1269 1238 760 575 627 658 896 808 757 741 711 562 558 607 497 507 788
2380 1984 2108 2092 2090 2525 2514 2622 2601 2446 2454 2464 2421 2458 2324 2328 2353 2401 2330 2194 2081 1966 1932 1852 1928 1943 1976 1922 1873 1892 1795 1628 1398 1315 1154 1224 1528 1372 1270 1363 1488 1556 1580 1740 1777 1865 1838 1661 1636 1715 1857 1980 2066 2043 1895 1869 2062 1949 1832 1918 1904 1997 1796 2008 1542 1185 1042 1169 1787 580 112 597 641 670 944 859 809 682 590 535 635 689 854 792 757
2120 1855 2057 2254 2276 2524 2541 2575 2588 2436 2440 2290 2403 2287 2283 2288 2226 2226 2242 2119 1966 1900 1881 1945 1931 1941 1938 1901 1845 1848 1818 1465 1187 1174 1094 1190 1637 1450 1417 1234 1435 1478 1473 1630 1732 1743 1602 1500 1540 1856 1969 2024 2025 2151 2029 1960 1948 2165 2129 1874 2213 2017 2167 2014 2045 1645 994 730 449 420 215 438 700 734 1028 928 800 832 857 746 669 847 931 914 883
1847 1958 2044 2490 2360 2662 2615 2600 2614 2555 2443 2268 2237 2275 2305 2252 2176 2095 2071 1991 1902 1879 1901 1927 1944 1925 1932 1876 1858 1802 1823 1381 1210 1155 1034 1108 1542 1533 1422 1476 1284 1335 1298 1542 1620 1607 1411 1397 1662 1763 1828 2064 1994 2079 2116 2098 1932 2184 2295 2242 2225 2225 2273 2364 1920 1165 895 666 686 890 1055 888 735 838 1080 1054 1023 873 772 1169 1006 935 836 1026 945
1748 2161 2390 2644 2382 2664 2558 2592 2614 2552 2342 2301 2280 2282 2208 2240 2153 1973 1850 1834 1927 1812 1750 1850 1915 1973 1881 1842 1800 1884 1801 1359 1180 1106 986 1024 1269 1342 1006 1315 1500 1374 1162 1458 1561 1603 1450 1417 1568 1756 1989 1930 2066 2134 2189 2303 2113 1876 2337 1991 2372 2358 2326 1823 666 520 723 1161 666 771 1141 1196 873 849 1095 1018 979 1010 1037 973 1072 1030 960 918 876
1932 2161 2825 2675 2796 2590 2567 2600 2604 2558 2438 2354 2299 2260 2222 2081 2002 1964 1847 1883 1861 1760 1744 1864 2001 1920 1916 1868 1792 1890 1816 1383 1142 1080 978 990 963 954 1158 1316 1351 1557 1341 1252 1342 1519 1457 1561 1540 1852 2083 2017 2003 1927 1980 2038 2176 2270 1993 2087 2392 1921 1101 1000 728 553 397 509 818 805 794 823 780 1092 1115 1010 1095 1076 1058 1107 1077 977 920 838 766
2035 2318 3141 2780 2596 2689 2627 2599 2545 2452 2388 2284 2259 2214 2164 2028 1955 1900 1880 1986 1919 1800 1780 1855 1976 2103 2062 2017 1856 1874 1850 1478 1213 1069 947 873 832 881 1325 1398 1618 1503 1054 1139 1474 1357 1316 1526 1540 1855 1957 1996 2009 1993 1764 1717 1968 2139 2005 2327 1828 991 728 840 758 622 455 490 922 812 844 921 907 1181 1120 1150 1113 1139 1120 1028 961 962 892 696 603
2352 3400 2899 2685 2648 2820 2709 2598 2517 2450 2395 2353 2295 2192 2056 2057 1986 1933 1903 2004 2004 1894 1868 2031 2043 1942 1963 2095 1947 1932 1881 1517 1212 1068 912 892 892 949 1046 1102 1175 1233 1267 1414 1508 1553 1278 1398 1601 1694 1798 1861 1786 1831 1665 1646 1689 1822 2115 2273 1686 959 723 693 713 811 600 932 1307 1004 1004 1075 904 1113 1108 1207 1160 1181 1143 1074 957 745 470 290 158
3535 3253 2891 2729 2678 2717 2790 2664 2564 2445 2424 2316 2244 2172 2101 2058 1964 1886 1746 1681 1675 1594 1698 1682 1761 1827 1891 1966 1900 1920 1836 1548 1251 1009 909 980 1014 1069 1155 1235 1225 1344 1234 1162 1260 1328 1154 1061 1240 1482 1737 1716 1787 1667 1577 1540 1615 1768 1894 1771 1342 1206 984 1055 1494 976 1067 750 1024 1004 911 850 1121 1005 1192 1128 1198 1086 1092 734 509 387 218 60 2
3408 3246 2859 2494 2293 2627 2625 2687 2560 2539 2459 2421 2366 2149 1992 1876 1816 1740 1611 1486 1511 1498 1466 1496 1477 1528 1821 1892 1896 1881 1892 1646 1262 1184 1125 881 921 1062 1210 1285 1268 1144 1047 1121 1202 1060 1196 1042 1137 1436 1670 1743 1676 1599 1446 1391 1451 1492 1342 1344 1356 1301 1072 1059 1281 1075 1440 1316 976 1092 918 1065 1069 1096 1121 1231 1075 954 626 324 152 59 2 0 0
2868 2692 2598 2421 2302 2243 2424 2357 2469 2504 2529 2487 2362 2066 1916 1850 1786 1688 1533 1459 1420 1312 1209 1291 1418 1507 1535 1796 1722 1816 1918 1748 1336 1160 991 829 811 789 1007 1144 1108 1047 1026 1103 1115 1050 1132 1027 1115 1469 1609 1759 1718 1696 1532 1344 1308 1144 1714 1623 1632 1655 1423 1002 791 811 1020 1043 814 880 845 821 961 976 893 1044 908 704 276 118 1 0 0 0 0
2716 2499 2377 2188 2108 2122 2193 2109 2242 2310 2617 2485 2165 1932 1796 1768 1772 1492 1495 1511 1463 1379 1421 1452 1530 1464 1476 1528 1626 1759 2008 1838 1446 1191 993 879 998 1022 1180 1090 979 1019 1047 1189 1144 979 915 1105 1156 1455 1419 1524 1749 1687 1510 1492 1387 1716 2002 1687 1313 1155 1161 1246 1154 1316 892 1172 935 1031 897 989 977 902 772 665 523 214 26 0 0 0 0 0 0
2522 2521 2247 2042 2036 2000 1981 2215 2220 1826 2364 2300 1988 1850 1835 1717 1611 1497 1476 1614 1559 1522 1538 1623 1660 1449 1415 1405 1619 1500 1893 1675 1334 1238 1026 910 1010 1229 1133 999 905 824 962 1193 1161 919 882 946 752 1170 1419 1439 1475 1680 1601 1470 1739 1635 2082 1519 1482 1703 1881 1703 1075 813 1132 1069 803 690 755 869 695 523 380 306 184 14 0 0 0 0 0 1 3
2417 2426 2235 2119 1968 2213 1907 2079 2085 2098 2220 2134 1930 1716 1636 1680 1552 1444 1572 1544 1457 1759 1822 1702 1679 1590 1441 1269 1353 1598 1396 1439 1377 1173 1068 1012 1331 1189 1069 868 811 811 774 1126 1211 970 911 778 1004 931 1367 1772 1681 1596 1652 1518 1600 1751 1792 1462 1800 1739 1530 1249 1014 1117 924 990 934 699 826 637 468 387 250 102 42 0 0 0 0 0 1 2 4
2257 2271 2046 2026 1661 1827 1818 2372 2100 1924 2205 2165 2009 1516 1488 1592 1582 1548 1436 1357 1174 1524 1569 1564 1670 1619 1439 1294 1287 1186 1391 1347 1407 1110 1219 1281 1313 1167 1063 916 758 625 556 1138 1188 1125 910 797 658 1020 1008 1390 1766 1783 1713 1530 1136 1957 1396 1313 1608 1914 1523 859 1189 1232 830 796 771 641 704 551 336 280 132 38 0 0 0 0 0 0 1 2 3
2333 2221 1885 1699 1725 1690 2051 2155 1950 2017 2128 2302 1912 1543 1590 1358 1419 1460 1306 1292 1076 1040 1252 1402 1536 1387 1396 1272 1262 1216 886 1062 1248 1337 1094 1459 1320 1246 1125 941 729 570 588 980 1208 1182 1051 830 880 514 953 1370 1845 1258 1367 1727 1500 1852 1393 1367 1782 2110 1122 1044 1131 934 819 711 751 656 610 459 378 161 52 0 0 0 0 1 3 0 0 0 0
2353 2485 2073 1784 2027 1775 2450 1980 1989 2087 2232 2381 1968 1576 1376 1310 1251 1309 1196 1117 944 1060 1053 1269 1210 1104 1175 1028 1336 1179 852 834 1135 1283 1081 1284 1450 1270 1074 914 692 603 486 716 1026 1093 1068 1189 965 843 663 1284 1302 1295 552 663 1034 1391 1168 986 1586 2036 1314 1274 854 672 620 640 521 608 595 454 249 83 6 0 0 0 0 2 3 3 0 0 0
2580 2662 2225 2133 2396 2127 2095 1970 2149 1879 2174 2257 1876 1596 1374 1299 1398 1191 1048 1193 1071 823 775 512 394 541 750 1002 1112 956 925 1010 576 1060 453 1346 1475 1333 1104 870 722 596 477 603 829 937 948 1197 1406 1120 539 95 262 573 395 386 305 700 821 1364 1560 1427 1368 1253 900 690 604 574 548 592 422 180 51 0 0 0 0 0 0 2 3 4 4 4 1
2807 2974 2530 2470 2465 2278 2474 2284 2252 2163 2402 2397 1866 1541 1338 1467 1336 1225 1169 1244 1085 941 773 666 662 458 356 665 683 1006 944 904 887 806 572 1024 1187 1244 989 748 613 511 334 496 685 366 867 358 361 661 117 32 15 578 413 712 550 808 1068 1076 1435 1254 1222 1143 967 680 508 506 543 286 105 47 0 0 0 0 0 0 0 0 0 2 3 4 3
2717 2754 2764 2611 2811 2440 2371 2331 2395 2124 1912 2450 1878 1550 1522 1511 1422 1331 1351 1259 1192 1188 964 920 784 629 274 207 647 662 1193 688 915 757 484 695 1048 958 941 697 420 239 398 480 662 385 134 185 31 32 48 48 10 22 90 388 287 735 1157 1287 1406 1104 1167 1232 842 537 253 192 149 111 23 0 0 0 2 0 0 0 0 4 4 2 1 2 3
2873 3115 3112 2930 2761 2606 2524 2212 2701 2169 2211 2543 2173 1610 1599 1572 1527 1449 1463 1532 1265 1369 1292 1343 1118 794 457 769 1028 306 891 917 942 787 537 527 633 780 851 702 429 169 392 475 549 417 46 149 42 13 13 13 14 28 66 45 326 696 1005 925 893 1031 1044 859 431 256 172 108 47 15 0 0 0 0 0 1 2 3 5 1 3 2 0 2 3
2735 3470 3191 3137 2926 2754 2799 2305 2303 2225 2311 2588 2492 1633 1723 1753 1675 1635 1576 1794 1417 1429 1687 1619 1563 1205 1354 1864 1095 505 805 898 854 569 652 376 499 484 507 411 495 190 660 204 362 259 38 24 66 3 0 0 20 24 24 296 170 359 418 697 812 940 1018 814 216 172 30 0 2 0 0 0 0 0 0 0 5 6 7 2 0 1 4 0 1
2679 3522 3202 3314 3140 2759 3003 2296 2230 2373 2332 2804 2619 1720 1832 1896 1792 1821 1750 1974 1713 1581 1993 2145 1938 1546 1900 1191 973 591 512 882 452 510 670 333 618 317 295 244 205 260 570 0 206 186 51 2 58 15 0 31 189 46 335 457 276 324 335 492 837 823 976 1339 115 24 0 0 0 0 0 0 0 0 0 0 1 2 5 2 2 0 1 3 1
3240 3632 3135 3484 3206 2649 3030 2360 2273 2663 2456 2637 2857 2332 1706 1936 1927 1974 2337 1891 1954 2040 2644 2372 2219 2122 2043 1177 1152 603 586 777 468 401 528 485 574 434 479 339 335 440 465 197 420 645 31 0 305 83 14 98 82 116 250 321 612 464 402 410 468 626 858 1201 119 170 0 0 0 0 0 0 1 0 0 0 0 0 4 3 2 1 2 2 2
3896 3734 3126 3351 3492 2687 2815 2492 2261 2581 2401 2373 2914 2672 1818 2120 2033 2129 2473 1917 1992 2679 2618 2481 2300 2152 2151 1869 1294 1508 1076 1167 456 627 720 806 1204 753 658 882 611 688 439 95 386 718 186 175 334 38 35 272 124 215 194 184 620 457 262 322 496 589 680 1485 86 8 0 0 0 0 0 0 0 0 0 0 0 0 0 1 1 1 1 2 2
4082 3843 3527 3414 3506 3100 2858 2632 2473 2629 2114 2368 2912 2861 1952 2348 2262 2085 2095 1717 2677 2628 2358 2364 2174 2174 2101 2202 1352 1264 1495 1868 1112 928 1300 1119 1042 1252 960 1272 1243 968 866 137 503 564 231 200 124 30 1423 198 796 140 602 455 639 623 390 276 274 354 606 456 54 4 0 0 0 0 0 0 0 0 0 0 0 0 0 1 1 2 0 0 1
3992 3805 3630 3585 3378 3164 2913 2799 2688 3011 2613 2505 2456 2878 2594 2622 2490 2356 2364 2215 2676 2408 2398 2353 2278 2290 2189 2216 1570 1298 1182 2302 1465 1054 1119 934 1139 1038 968 1192 800 1166 703 369 474 120 198 556 48 449 278 900 487 688 472 646 580 502 468 244 189 191 372 137 69 1 0 0 0 0 0 0 0 0 0 0 0 0 0 0 1 3 0 0 0
3980 3825 3860 3690 3431 3238 3049 2969 3043 3145 2769 2655 2449 2687 2876 2678 2621 2718 2572 2511 2275 2222 2405 2516 2394 2434 2218 2261 1632 1306 1142 1655 1656 1344 1258 806 1236 1209 839 1233 882 786 716 1382 1399 814 592 580 531 1073 899 756 704 695 572 458 500 626 604 356 126 90 56 70 18 1 0 0 0 0 0 0 0 0 0 0 0 0 0 0 0 0 0 1 0
3910 3805 3922 3622 3470 3441 3146 3144 3082 2995 2856 2754 2566 2600 3000 2784 2552 2597 2606 2581 2182 2194 2545 2643 2359 2407 2196 2051 1904 1349 1088 1283 1410 1499 1516 904 1113 861 790 956 1034 471 1705 1048 1434 922 1152 1148 1061 920 1004 928 486 749 444 548 440 345 509 282 141 96 0 0 0 0 0 0 0 0 0 0 0 0 0 0 0 0 0 0 0 0 0 0 1
4015 3791 4037 3559 3474 3546 3290 3341 3168 2968 3070 3043 2544 2788 2843 2958 2537 2455 2706 2761 2274 2206 2612 2505 2255 2322 2181 2038 1833 1528 1251 1076 1190 1378 1649 914 797 394 921 577 854 1260 1540 1343 1480 794 1356 1175 1148 1460 758 527 548 486 660 677 582 232 10 12 6 0 0 0 0 8 0 0 0 0 0 0 0 0 0 0 0 0 0 0 0 0 0 0 0
4211 3867 4137 3736 3563 3473 3401 3494 3265 3145 3042 2931 2700 2873 2624 2940 2561 2377 2798 2695 2296 2304 2485 2478 2294 2313 2189 1912 1702 1644 1012 1087 1267 1189 1445 1090 547 367 376 715 1372 1550 1926 1527 1518 1144 1299 1283 1318 1290 922 803 374 379 769 665 305 176 177 3 0 0 0 0 64 16 5 0 0 0 0 0 0 0 0 0 0 0 0 0 0 0 0 0 0
4463 4094 4096 3812 3575 3569 3449 3566 3374 3245 2990 2849 2716 2872 2576 2796 2588 2287 2550 2437 2368 2170 2198 2157 2179 2252 2099 1694 1598 1744 973 1080 1221 1155 1047 1216 291 267 92 1893 1084 1625 1920 1280 1367 1400 1141 1376 1507 1339 1161 755 630 704 618 364 242 2 4 25 0 0 0 0 24 40 0 0 0 0 0 0 0 0 0 0 0 0 0 0 0 0 0 0 0
4445 4263 4109 3784 3494 3502 3435 3573 3330 3149 3072 2878 2720 2878 2683 2795 2509 2331 2621 2460 2430 2474 2125 1969 2081 2181 2154 1782 1428 1630 1046 1250 1215 1048 1277 1241 337 291 1387 1199 984 2098 1698 999 1333 1320 1313 1683 1555 2006 1959 1471 1387 514 463 331 73 5 0 0 0 132 29 0 64 60 26 0 0 0 0 0 0 0 0 0 0 0 0 0 0 0 0 0 0
3997 3940 4012 3695 3642 3464 3440 3519 3305 3143 3094 2884 2721 2714 2470 2529 2302 2158 2365 2299 2402 2330 2179 1874 1923 2128 2155 1816 1448 1692 1055 1491 1149 1140 1557 1515 632 1025 1601 1254 1000 1834 1648 834 1222 1335 1502 1833 2256 1966 1888 1207 930 572 251 17 0 0 0 0 0 0 0 56 0 61 4 0 0 0 0 0 0 0 0 0 0 0 0 0 0 0 0 0 0
4228 3264 3614 3672 3649 3432 3446 3376 3232 3021 3049 2806 2593 2438 2416 2418 2186 1935 2069 2287 2124 2185 2098 1905 1800 1818 1868 1698 1412 1406 1008 1400 1170 1170 1530 2058 1826 1860 1606 1042 1612 1362 1646 1206 1807 2101 2625 1864 1603 1741 1392 1531 928 561 97 0 0 0 2 0 0 0 87 81 0 67 0 0 0 0 0 0 0 0 0 0 0 0 0 0 0 0 0 0 0
3799 3876 3546 3502 3605 3445 3456 3277 3212 3105 3000 2764 2490 2426 2402 2358 2098 1905 1979 2100 2076 1922 1856 1910 1896 1986 1910 1714 1508 1156 1016 1334 1450 1034 1584 2122 2249 1982 1701 1099 1630 1310 1683 1969 1975 2010 1741 1565 1342 1169 953 1501 760 521 378 0 0 0 0 0 0 19 83 81 11 0 0 0 0 0 0 0 0 0 0 0 0 0 0 0 0 0 0 0 0
3621 3715 3473 3128 3556 3463 3508 3266 3368 3216 2944 2643 2470 2443 2371 2410 2352 2009 1940 1995 2034 1982 1764 1809 2073 2258 1972 2050 1573 1261 1001 1226 1643 1099 1663 2172 2167 2190 1994 1693 1852 1701 1792 1586 1352 1556 1619 1325 1099 985 918 907 804 461 375 36 0 0 0 0 0 0 7 30 2 0 0 0 0 0 0 0 0 0 0 0 0 0 0 0 0 0 0 0 0
3681 3767 3595 3508 3567 3283 3274 3338 3362 3231 2916 2641 2474 2515 2361 2562 2620 2477 2130 1972 1920 2081 2042 2027 2038 2329 2204 2076 1479 1586 1179 1267 1384 1247 1842 2026 2390 2493 2408 2460 2103 2156 1930 891 1107 1192 1297 1461 1174 1096 954 772 609 457 343 334 30 0 2 1 0 0 0 0 0 0 0 0 0 0 0 0 0 0 0 0 0 0 0 0 0 0 0 0 0
3645 3597 3499 3473 3693 3250 3162 3216 3235 3172 2927 2676 2533 2485 2479 2640 2668 2632 2376 2111 1896 1821 2005 1875 1884 2203 2140 2014 1721 1676 1421 1501 1400 1508 1772 2196 2494 2470 2288 2332 2382 2491 1455 1035 1253 1289 1242 1181 1335 1222 930 715 530 419 247 26 299 85 151 86 27 1 13 2 0 0 0 0 0 0 0 0 0 0 0 0 0 0 0 0 0 0 0 0 0
3647 3477 3444 3462 3717 3406 3145 3142 3168 3036 2916 2900 2806 2656 2381 2668 2512 2344 2179 2140 1787 1783 1895 1784 1811 2026 2131 2122 1876 1594 1623 1532 1346 1663 1793 2250 2318 2321 2371 2364 2536 2596 1514 1460 1237 1188 1118 1300 1455 1395 849 862 547 342 309 175 162 442 440 1170 1288 519 339 0 0 0 0 0 0 0 0 0 0 0 0 0 0 0 0 0 0 0 0 0 0
3836 3608 3583 3618 3756 3498 3276 3189 3050 2890 2956 3046 2939 2666 2601 2831 2639 2412 2198 2227 1904 1794 2022 2015 1935 2172 2405 2320 1968 1654 1632 1680 1574 1598 2062 2566 2582 2554 2504 2592 2449 2837 2270 1468 1159 1102 899 904 1132 1351 929 1092 650 460 235 225 145 370 377 490 1030 804 721 0 0 0 0 0 0 0 0 0 0 0 0 0 0 0 0 0 0 0 0 0 0
3835 3657 3700 3707 3639 3637 3416 3264 3141 2948 2996 3168 2941 2744 2716 2827 2780 2537 2188 2234 2054 1954 2218 2209 2167 2279 2520 2445 2196 1824 1737 1651 1907 1696 2201 2706 2580 2405 2673 2566 2370 2434 2382 2240 1386 1334 1184 810 793 1290 1051 1026 766 497 440 325 256 317 236 396 560 799 290 0 0 0 0 0 0 0 0 0 0 0 0 0 0 0 0 0 0 0 0 0 0
3861 3703 3662 3637 3706 3762 3590 3480 3417 3211 3264 3121 2959 2950 2777 2860 2870 2538 2160 2077 2236 2122 2132 2242 2257 2252 2643 2513 2353 1888 1851 1669 1886 1919 2143 2525 2485 2569 2598 2529 2285 2104 2066 2339 2069 1365 1193 894 860 908 883 1006 961 740 568 465 436 374 314 428 616 540 195 15 69 0 0 0 0 0 0 0 0 0 0 0 0 0 0 0 0 0 0 0 0
3900 3812 3698 3716 3739 3767 3667 3474 3473 3267 3360 3234 3031 2990 2924 2788 2909 2531 2232 2116 2281 2256 2112 2303 2308 2303 2772 2578 2538 2055 1823 1956 1882 1917 2043 2327 2572 2674 2465 2282 2272 2325 2046 2064 2182 2031 1282 984 927 956 997 993 1263 1012 858 630 503 479 450 446 516 599 631 264 137 141 8 0 0 0 0 0 0 0 0 0 0 0 0 0 0 0 0 0 0
3839 3763 3682 3636 3761 3817 3587 3264 3400 3325 3314 3099 3004 2895 2988 2838 2802 2492 2352 2142 2362 2350 2074 2293 2310 2321 2631 2710 2504 2402 2019 2137 2142 1996 2213 2168 2540 2534 2183 2397 2297 2050 2002 1986 2038 1765 1685 1411 1140 1082 1324 1465 1580 1298 1069 1261 786 1298 836 611 567 564 516 383 106 108 66 56 37 0 0 0 0 0 0 0 0 0 0 0 0 0 0 0 0
Wind_Speed
29 31 25 25 23 23 23 24 23 23 24 23 23 22 22 21 21 22 23 23 21 18 17 16 15 15 14 15 14 14 15 16 17 17 17 17 17 18 17 17 17 16 16 15 14 14 13 12 12 13 12 11 12 11 11 11 10 10 9 8 7 8 8 9 10 11 11 12 13 13 13 13 13 13 15 17 20 21 22 22 20 nan 13 17 22
30 29 22 22 24 23 23 25 24 24 25 24 24 23 22 21 21 22 23 22 20 19 17 16 15 15 15 15 15 15 15 15 16 17 17 18 18 18 17 17 17 16 15 15 14 14 13 13 13 13 12 11 11 12 11 10 10 10 8 7 7 7 8 9 11 12 13 13 13 13 14 14 14 14 14 16 18 19 18 19 19 13 11 18 19
31 27 22 23 25 25 24 25 26 26 25 25 25 24 23 21 21 22 23 22 20 18 17 16 15 15 16 16 15 15 16 15 15 16 17 18 18 18 17 16 16 16 15 14 14 14 14 13 13 12 11 11 11 11 10 9 9 9 8 6 6 6 7 8 12 12 13 14 14 16 15 15 15 14 15 16 16 15 16 16 16 16 12 18 16
30 25 23 24 26 25 25 26 26 26 26 26 25 24 23 21 21 21 22 21 20 18 17 16 15 15 16 16 16 16 16 15 14 15 18 18 18 17 17 16 16 16 15 14 14 13 13 13 12 12 11 10 10 10 10 8 8 8 6 5 5 5 7 8 10 14 7 9 6 3 7 9 11 15 15 15 15 15 15 16 16 17 18 17 18
29 25 25 23 24 25 25 26 25 26 26 26 26 25 23 21 20 21 21 20 19 18 17 16 15 16 16 17 17 17 16 15 15 15 17 18 17 17 16 16 16 15 15 14 13 13 12 12 12 11 10 9 9 9 9 8 7 6 5 5 4 5 5 8 9 15 3 2 2 3 5 11 10 15 15 15 15 15 16 16 16 16 17 18 18
28 26 24 23 24 25 26 26 25 27 26 25 25 24 23 21 21 21 21 20 19 18 17 16 15 16 17 18 18 17 17 15 15 14 14 17 16 17 16 16 16 15 14 14 13 12 12 11 11 11 9 8 8 9 8 8 7 7 5 3 4 4 5 6 15 10 5 7 1 1 3 9 10 10 16 15 16 16 17 17 17 16 16 18 20
30 25 25 24 23 25 28 27 26 26 26 25 25 23 22 22 22 21 21 21 19 19 18 17 16 15 16 18 18 17 17 16 15 15 15 15 16 17 17 17 17 16 15 14 13 12 11 11 11 10 9 8 8 8 8 8 7 7 6 5 4 4 3 5 13 14 8 6 7 6 1 10 9 9 15 15 16 17 18 18 17 17 18 19 21
26 25 25 25 24 26 29 29 28 28 27 25 25 24 23 22 22 22 21 21 19 19 18 17 16 16 16 17 18 17 17 16 16 15 15 14 14 16 18 18 18 17 16 15 13 12 11 11 11 10 8 7 7 7 6 6 7 7 6 6 5 3 3 3 4 10 6 7 7 9 7 11 10 10 14 16 16 15 17 18 18 20 21 23 22
26 26 26 26 26 31 29 29 29 30 28 27 27 26 24 23 23 22 21 21 19 18 18 17 17 17 17 18 18 17 16 16 16 16 15 14 15 17 18 19 19 18 17 15 12 11 11 11 10 9 7 6 6 6 5 5 6 6 6 6 4 3 1 1 4 6 8 8 9 10 11 14 12 10 13 15 17 19 19 17 17 22 24 25 25
26 25 25 25 27 31 30 29 29 30 29 28 26 22 21 22 22 22 22 21 19 18 18 17 17 17 17 18 18 18 16 16 16 16 15 14 16 18 19 19 20 19 18 16 13 12 11 10 10 9 7 6 6 5 5 4 5 6 5 5 4 3 2 2 5 6 8 8 12 13 15 16 13 11 13 15 17 19 21 22 19 21 22 26 27
26 24 24 26 29 30 29 28 28 28 28 25 21 19 19 21 21 21 21 20 19 19 18 18 17 18 18 18 19 18 17 16 16 16 15 16 16 18 20 19 18 18 19 16 14 12 11 10 9 8 7 6 6 6 5 6 5 6 6 6 5 5 4 7 9 5 4 8 6 14 17 19 12 10 15 18 18 20 22 23 23 24 26 27 27
25 23 25 26 30 29 28 27 27 26 22 21 21 20 20 20 21 21 21 19 19 18 17 17 16 18 18 17 18 18 16 15 15 15 16 15 17 19 19 18 18 18 18 17 15 12 10 9 9 9 8 7 7 7 7 6 7 7 7 7 5 10 7 7 7 6 2 4 10 15 15 14 13 13 18 19 21 22 24 23 24 24 25 27 27
24 24 28 27 26 28 28 27 26 26 20 18 20 21 20 19 20 20 19 17 16 16 17 17 16 16 17 16 18 17 15 14 14 14 15 15 17 18 17 17 17 18 19 18 15 13 11 10 9 9 9 9 9 9 9 8 8 9 8 5 13 12 7 8 7 6 8 6 10 15 15 14 14 18 19 21 23 23 24 24 24 24 26 28 29
23 29 28 26 24 28 29 28 27 27 21 18 21 20 20 20 20 19 18 16 15 15 15 15 16 17 17 16 16 17 15 14 14 14 14 15 16 17 18 18 19 19 20 19 17 14 12 11 10 9 9 10 10 10 10 10 10 9 8 12 14 11 8 8 4 7 8 11 13 15 15 13 14 20 22 22 23 24 24 25 26 27 28 27 28
27 29 27 25 25 24 29 29 29 27 22 19 20 20 19 20 20 20 19 17 15 13 14 15 16 16 17 17 17 18 15 13 13 13 14 15 16 17 18 18 19 20 19 18 17 16 14 12 11 10 10 11 11 12 12 12 12 11 12 15 14 11 9 11 9 7 12 12 13 15 15 15 18 21 23 24 23 25 27 26 26 27 27 nan nan
26 27 28 24 23 22 19 23 24 20 17 17 15 15 16 18 18 20 20 18 16 14 14 16 17 16 16 15 17 18 15 13 13 12 12 15 16 17 18 19 20 21 20 19 18 17 16 13 12 11 11 12 13 13 13 14 14 13 16 18 14 15 16 14 10 9 11 12 15 15 16 16 21 22 24 25 26 26 27 27 26 nan nan nan nan
25 26 25 22 22 19 14 12 14 14 13 13 10 12 14 16 18 19 19 19 18 17 15 16 18 16 16 16 16 17 16 13 13 13 13 14 16 17 18 18 20 20 21 20 19 18 17 15 13 12 12 13 14 13 14 14 14 14 16 18 16 16 20 19 14 11 12 16 18 16 15 15 22 23 25 26 26 27 26 25 nan nan nan nan nan
24 23 22 22 21 17 13 11 13 11 12 11 10 12 13 15 16 16 17 17 16 15 15 16 17 17 16 16 14 16 16 13 13 12 13 14 14 17 18 19 20 21 21 21 20 19 18 16 14 13 13 14 15 15 14 14 12 12 16 18 18 17 17 21 17 14 17 20 19 17 16 21 25 25 26 26 26 26 nan nan nan nan nan nan nan
22 21 22 20 18 16 14 14 12 11 13 9 6 10 14 14 14 15 16 16 15 14 15 16 17 17 16 16 15 16 16 15 13 12 13 14 15 17 18 18 20 22 22 21 20 20 19 17 15 14 14 14 15 15 14 13 11 11 17 17 15 15 16 15 17 19 18 18 19 18 18 25 27 28 26 25 26 nan nan nan nan nan nan nan nan
20 20 19 18 16 15 15 12 11 10 10 8 8 10 12 15 15 17 18 17 17 16 16 16 16 17 17 16 16 13 14 12 13 11 14 15 16 15 18 18 19 20 22 21 21 20 19 19 17 15 15 15 15 15 14 12 10 11 16 14 13 12 11 11 15 18 18 19 20 18 24 27 29 29 27 26 nan nan nan nan nan nan nan nan nan
18 17 17 16 16 17 15 12 11 10 10 10 10 11 11 15 16 18 19 19 18 17 16 17 17 16 15 14 14 10 9 8 10 9 13 11 14 17 18 18 18 20 21 20 20 19 19 19 18 17 16 17 16 15 14 12 9 11 15 14 13 10 13 14 16 18 18 18 19 20 28 28 28 27 26 nan nan nan nan nan nan nan nan nan nan
17 16 15 16 16 16 16 14 14 14 13 12 12 12 13 13 15 16 16 17 17 17 15 14 16 14 17 12 9 8 7 7 7 10 8 11 13 18 17 18 19 19 19 19 19 18 18 18 18 18 17 18 20 16 14 11 9 11 16 14 10 11 16 17 19 19 19 18 18 21 27 25 25 25 nan nan nan nan nan nan nan nan nan nan nan
17 18 15 15 16 18 17 16 16 15 17 15 14 14 15 13 15 16 15 17 16 16 13 14 14 13 13 11 9 8 8 8 7 9 7 12 12 17 17 17 18 18 18 18 17 18 17 17 18 17 18 20 17 16 17 15 12 13 15 11 11 12 15 17 18 18 18 18 16 23 24 25 24 nan nan nan nan nan nan nan nan nan nan nan nan
20 21 19 17 18 18 18 17 17 16 17 13 14 15 14 14 15 15 15 15 15 14 13 13 12 13 12 9 8 9 9 8 12 15 11 9 12 15 17 17 17 17 18 16 17 16 16 16 16 17 17 nan 16 17 20 18 15 12 14 13 14 14 14 16 17 17 18 19 18 26 25 26 nan nan nan nan nan nan nan nan nan nan nan nan nan
24 24 21 19 19 22 19 19 17 15 16 14 16 13 12 15 15 15 15 15 14 14 14 13 13 11 12 9 10 8 8 8 7 7 6 9 11 11 12 12 12 12 16 13 15 16 16 17 17 17 16 nan nan 17 18 20 16 13 13 12 15 17 17 17 19 19 18 18 21 28 29 nan nan nan nan nan nan nan nan nan nan nan nan nan nan
25 24 21 21 22 24 22 21 17 16 15 15 14 12 10 13 15 15 14 15 14 15 15 13 14 13 11 10 9 10 9 8 8 7 7 10 11 12 12 12 12 13 15 12 15 15 17 16 nan nan nan nan nan nan nan 22 19 15 14 14 17 18 19 20 20 19 19 19 23 30 nan nan nan nan nan nan nan nan nan nan nan nan nan nan nan
26 26 24 24 27 27 24 21 18 17 17 16 15 12 9 11 14 16 14 15 13 15 15 13 15 14 12 10 10 9 10 11 11 9 8 10 11 12 13 13 12 13 15 13 14 16 nan 16 nan nan nan nan nan nan nan nan 25 17 14 16 18 19 21 24 23 22 21 22 nan nan nan nan nan nan nan nan nan nan nan nan nan nan nan nan nan
30 29 25 26 28 27 26 21 20 19 17 17 17 14 9 11 13 16 15 15 15 14 16 14 16 14 11 10 11 10 9 14 12 11 9 9 11 12 13 14 12 13 16 14 14 16 nan nan nan nan nan nan nan nan nan 27 28 21 19 15 15 18 21 25 26 26 nan nan nan nan nan nan nan nan nan nan nan nan nan nan nan nan nan nan nan
31 31 27 28 28 28 25 21 22 19 18 19 19 16 11 12 14 16 16 17 16 15 16 16 17 14 12 15 11 12 10 12 14 11 11 10 12 12 12 14 14 14 16 nan 14 17 nan nan nan nan nan nan 16 nan 21 25 30 25 20 19 16 17 19 20 26 nan nan nan nan nan nan nan nan nan nan nan nan nan nan nan nan nan nan nan nan
36 34 29 29 29 27 24 21 23 21 19 21 20 19 14 14 15 16 18 20 16 17 19 18 17 14 13 16 14 14 12 14 14 13 11 12 13 15 14 15 15 14 17 16 13 17 nan nan 15 nan nan nan nan 19 21 24 28 29 22 18 18 17 17 16 25 27 nan nan nan nan nan nan nan nan nan nan nan nan nan nan nan nan nan nan nan
40 36 30 29 29 27 25 22 24 23 21 22 22 23 19 15 17 17 19 20 18 20 20 19 18 16 12 15 14 14 15 16 16 14 11 14 12 16 15 15 17 14 18 nan 13 17 17 15 17 nan nan 17 16 18 19 22 25 32 25 21 18 18 17 16 nan nan nan nan nan nan nan nan nan nan nan nan nan nan nan nan nan nan nan nan nan
41 36 32 28 29 28 27 25 25 23 23 23 25 26 23 18 18 18 19 21 22 22 20 21 19 18 14 14 15 13 13 15 18 15 13 13 11 12 14 14 14 13 16 17 14 17 16 15 18 nan 13 16 17 18 18 22 25 28 32 25 21 20 17 18 nan nan nan nan nan nan nan nan nan nan nan nan nan nan nan nan nan nan nan nan nan
41 38 34 29 29 30 28 25 27 25 24 25 27 28 25 22 20 17 19 23 25 22 22 22 21 20 16 15 16 14 14 15 19 17 14 14 13 13 16 14 15 13 16 16 15 18 17 16 nan 14 16 15 18 17 19 22 22 24 28 31 28 26 22 21 nan nan nan nan nan nan nan nan nan nan nan nan nan nan nan nan nan nan nan nan nan
39 37 33 29 30 32 31 28 28 27 26 27 26 29 25 23 22 17 19 23 26 23 24 24 22 20 18 16 16 15 16 15 18 17 16 16 15 15 15 16 16 16 15 17 17 18 18 17 18 17 15 16 16 18 19 21 23 22 22 26 24 nan nan nan nan nan nan nan nan nan nan nan nan nan nan nan nan nan nan nan nan nan nan nan nan
39 33 30 30 31 32 32 30 30 28 28 27 26 28 27 24 22 20 20 21 26 25 26 25 22 21 19 15 15 16 16 15 17 16 16 18 17 18 15 16 16 17 16 19 18 18 17 19 19 16 15 15 16 19 18 21 22 23 21 24 25 nan nan nan nan nan nan nan nan nan nan nan nan nan nan nan nan nan nan nan nan nan nan nan nan
40 34 35 33 32 33 32 33 32 30 28 30 29 28 27 25 23 22 20 20 26 28 28 25 22 22 17 15 15 15 15 15 18 17 16 17 19 20 17 18 18 19 20 18 18 18 19 20 18 16 16 14 17 17 17 20 20 22 nan nan nan nan nan nan nan nan nan nan nan nan nan nan nan nan nan nan nan nan nan nan nan nan nan nan nan
43 39 41 35 34 35 36 35 32 30 30 32 30 29 27 25 25 24 21 19 26 31 28 26 24 23 19 15 14 14 15 14 18 18 16 17 20 19 19 19 21 20 21 20 17 20 21 19 19 17 15 15 17 18 18 19 22 22 21 nan nan nan nan nan nan nan nan nan nan nan nan nan nan nan nan nan nan nan nan nan nan nan nan nan nan
48 44 44 38 36 39 38 37 34 31 32 33 31 29 27 27 27 25 23 21 25 30 29 26 26 24 18 15 15 15 16 14 19 19 17 18 21 21 nan 22 23 21 22 22 18 21 21 18 19 17 15 17 16 19 20 20 21 nan nan nan nan nan nan nan nan nan nan nan nan nan nan nan nan nan nan nan nan nan nan nan nan nan nan nan nan
56 52 49 45 43 44 43 40 35 33 34 34 31 30 28 27 28 28 25 21 23 29 30 26 25 22 16 17 16 15 15 15 18 20 18 19 21 23 22 24 23 22 25 22 18 22 21 18 19 16 15 16 17 19 20 21 nan nan nan nan nan 19 nan nan nan nan nan nan nan nan nan nan nan nan nan nan nan nan nan nan nan nan nan nan nan
63 59 54 50 47 45 45 42 36 34 35 33 31 31 30 27 29 30 25 21 22 28 31 27 24 20 14 18 17 15 14 15 17 19 17 18 22 22 25 24 22 24 26 23 19 22 21 20 18 17 16 17 17 20 20 nan nan nan nan nan nan nan nan nan nan nan nan nan nan nan nan nan nan nan nan nan nan nan nan nan nan nan nan nan nan
60 60 54 51 49 46 45 41 38 36 34 31 29 31 30 29 28 28 25 22 22 28 30 27 23 20 16 19 17 14 13 14 15 18 17 18 22 25 26 24 23 24 25 22 20 23 22 21 18 16 17 17 17 19 nan nan nan nan nan nan nan nan nan nan nan nan nan nan nan nan nan nan nan nan nan nan nan nan nan nan nan nan nan nan nan
48 53 51 51 51 47 45 43 42 38 34 30 31 31 31 30 29 28 26 24 22 25 28 27 25 23 18 20 17 15 12 13 14 18 18 18 22 25 26 24 25 24 24 22 23 23 24 21 18 18 15 16 18 18 23 nan nan nan nan nan nan nan nan nan nan nan nan nan nan nan nan nan nan nan nan nan nan nan nan nan nan nan nan nan nan
42 44 44 46 50 48 48 45 42 38 35 31 31 31 32 31 30 29 26 24 24 27 27 28 26 24 19 21 19 16 12 14 15 18 19 20 23 24 25 25 25 26 26 23 23 22 22 22 18 19 19 15 16 18 23 nan nan nan nan nan nan nan nan nan nan nan nan nan nan nan nan nan nan nan nan nan nan nan nan nan nan nan nan nan nan
46 47 43 42 47 49 47 45 42 40 36 32 32 33 33 33 31 31 29 25 25 28 30 30 26 24 21 22 20 18 14 16 16 19 20 22 24 25 26 25 25 26 27 25 20 24 22 20 20 19 19 19 17 19 21 22 nan nan nan nan nan nan nan nan nan nan nan nan nan nan nan nan nan nan nan nan nan nan nan nan nan nan nan nan nan
46 49 47 40 42 44 45 45 44 40 36 34 35 37 36 35 34 34 31 26 23 24 28 27 24 23 24 22 23 20 17 17 17 19 21 24 25 25 26 26 26 27 30 25 21 21 22 20 20 20 20 20 20 20 21 nan 18 nan 18 nan nan nan nan nan nan nan nan nan nan nan nan nan nan nan nan nan nan nan nan nan nan nan nan nan nan
47 49 49 43 42 41 44 47 46 43 39 36 38 40 38 36 34 32 28 23 19 19 21 23 22 21 23 24 25 21 19 18 17 19 22 24 26 26 26 27 26 27 30 29 24 21 22 23 21 20 21 18 21 21 20 17 16 17 16 17 18 19 22 nan nan nan nan nan nan nan nan nan nan nan nan nan nan nan nan nan nan nan nan nan nan
49 50 48 44 42 40 41 45 47 43 41 40 40 41 39 35 33 30 25 22 21 21 24 24 23 24 25 25 25 23 19 19 17 19 24 25 26 27 26 25 26 26 28 32 29 25 22 24 22 20 22 22 23 23 21 19 19 15 16 16 18 20 23 nan nan nan nan nan nan nan nan nan nan nan nan nan nan nan nan nan nan nan nan nan nan
47 48 47 44 41 38 36 42 50 46 42 43 41 41 40 38 34 31 27 24 23 23 24 24 25 27 26 24 25 24 20 18 17 19 25 26 26 27 26 25 26 26 28 30 33 28 24 22 23 22 24 23 24 23 21 21 22 20 19 19 20 18 25 nan nan nan nan nan nan nan nan nan nan nan nan nan nan nan nan nan nan nan nan nan nan
45 45 45 44 43 41 37 38 46 47 44 43 44 42 43 41 36 33 28 26 26 27 27 27 26 28 27 25 25 25 21 19 18 19 25 27 27 27 27 26 26 26 27 28 30 33 32 26 21 21 23 24 21 21 21 22 23 21 23 22 22 20 24 nan nan nan nan nan nan nan nan nan nan nan nan nan nan nan nan nan nan nan nan nan nan
47 48 48 47 46 46 43 39 41 44 45 46 49 47 47 44 38 34 30 29 29 29 28 29 28 28 28 26 26 26 23 20 19 19 25 28 28 28 28 27 27 28 27 28 29 31 34 32 26 25 25 25 22 20 21 23 23 23 24 24 24 23 21 23 21 20 nan nan nan nan nan nan nan nan nan nan nan nan nan nan nan nan nan nan nan
51 52 50 47 48 46 45 42 41 43 41 44 51 52 49 46 40 35 33 30 29 29 27 30 29 28 30 28 27 26 24 22 21 20 25 28 29 29 29 28 27 27 28 29 28 30 29 32 32 30 31 29 25 23 21 22 24 24 24 25 26 24 24 23 22 21 nan nan nan nan nan nan nan nan nan nan nan nan nan nan nan nan nan nan nan
Wind_Direction
292 294 297 302 303 303 305 306 305 304 302 301 298 293 294 297 300 296 292 288 286 286 290 293 297 300 304 308 310 314 317 317 317 317 319 319 316 312 308 304 303 303 302 302 301 299 291 287 283 278 278 275 273 270 268 266 263 265 267 271 274 272 277 281 280 279 285 281 271 267 264 266 263 259 254 249 244 242 243 253 259 nan 258 255 253
293 291 291 299 302 303 305 308 306 305 303 299 296 292 290 293 292 294 291 288 286 286 291 295 301 303 308 311 314 317 320 322 323 323 321 320 318 314 311 308 303 302 304 305 303 299 294 289 286 282 280 279 275 272 270 269 268 270 272 271 275 285 287 288 292 293 286 281 282 270 266 264 261 258 254 251 249 245 245 250 254 257 259 255 252
284 287 289 296 298 301 303 306 309 307 304 301 297 289 287 288 290 291 291 289 286 287 292 297 303 308 311 315 319 320 321 324 326 328 326 319 319 317 312 310 306 304 306 308 307 302 298 292 287 286 284 283 280 277 277 276 278 279 278 281 281 286 297 292 294 303 300 287 284 286 275 267 262 260 257 254 256 257 254 253 255 255 250 246 243
283 283 285 291 295 298 303 304 306 306 305 300 295 285 285 288 288 289 290 288 287 289 294 302 307 312 316 318 323 325 325 325 330 332 327 324 321 319 315 311 310 308 310 312 312 306 301 296 293 291 289 287 284 282 284 286 282 285 288 292 299 307 299 301 299 266 280 307 292 199 303 287 272 263 261 258 257 257 255 254 252 249 246 242 238
280 283 284 288 293 295 301 303 304 303 302 301 292 286 285 287 288 289 289 290 289 292 296 304 312 317 321 321 327 329 329 327 329 331 327 326 326 323 319 315 312 314 314 316 314 307 305 300 297 294 294 290 288 292 291 296 297 300 301 315 323 320 313 302 282 271 316 41 151 198 304 295 282 266 264 260 256 253 251 247 247 246 243 239 233
280 282 285 288 292 296 299 300 302 301 299 297 291 287 287 289 290 291 291 291 292 295 299 306 315 321 323 324 329 332 330 329 328 328 330 328 333 327 321 319 316 318 320 317 315 313 308 304 301 298 297 297 293 295 302 311 316 317 329 344 341 337 311 308 279 293 353 356 331 279 115 290 284 274 264 262 257 253 250 246 244 240 237 234 230
282 283 286 288 287 294 297 296 298 297 297 295 292 291 291 292 293 294 294 295 296 298 302 309 317 322 324 327 330 332 332 331 328 326 330 334 335 329 323 323 322 323 323 320 319 316 312 307 306 302 302 302 296 297 308 319 326 337 344 10 24 345 318 291 307 321 344 334 336 340 21 296 291 281 263 263 261 255 251 248 246 242 237 235 238
277 282 286 285 286 293 296 296 296 295 294 291 291 292 296 299 298 297 297 300 299 301 304 312 317 323 325 327 331 332 332 331 330 326 329 337 333 327 324 326 326 326 326 323 319 318 317 311 307 305 305 300 297 297 308 321 322 336 351 21 28 1 305 309 290 290 345 358 349 324 2 296 289 285 266 262 258 253 255 252 247 241 239 240 242
278 284 285 284 287 297 295 296 296 297 293 290 290 294 297 300 300 300 300 302 301 303 307 311 318 322 326 328 330 335 335 331 329 326 328 333 332 325 327 327 327 329 328 322 320 318 315 314 308 305 306 300 294 296 300 318 326 320 341 26 29 348 337 323 250 291 327 338 325 15 343 296 288 286 267 261 258 256 252 250 245 244 243 246 246
279 281 283 281 288 296 296 296 297 298 298 296 293 294 298 300 302 301 303 302 303 305 308 312 319 321 325 329 332 338 338 331 327 327 328 328 325 327 325 329 329 330 330 323 323 319 318 317 311 307 306 301 294 289 295 301 311 318 332 8 9 344 320 252 219 287 315 343 349 302 287 288 287 283 275 267 259 257 257 257 255 250 246 245 248
280 279 279 280 291 293 295 296 297 300 305 302 294 290 294 300 302 303 303 304 303 306 309 314 319 322 326 331 335 339 338 331 328 328 329 327 325 321 324 329 330 334 331 325 326 322 320 317 312 307 302 294 285 282 287 291 297 311 318 358 360 327 266 241 243 283 352 316 313 303 294 285 294 294 280 274 269 263 260 256 254 251 249 249 251
277 277 274 274 286 291 291 293 293 297 302 301 294 291 291 296 300 302 305 305 305 306 309 314 319 324 327 333 336 337 337 331 328 329 331 330 326 323 324 328 333 338 332 329 326 320 321 319 317 311 304 297 287 280 283 292 298 308 328 7 326 261 274 283 305 316 245 305 294 292 292 293 297 291 280 279 277 271 264 262 258 255 253 253 254
275 272 265 271 281 288 288 289 287 288 293 293 293 293 291 293 296 300 304 303 304 305 309 314 319 323 328 332 335 336 333 330 330 330 331 331 328 323 320 324 328 330 329 326 320 322 327 325 323 316 308 298 290 285 288 296 304 312 340 324 273 290 308 291 322 311 322 78 321 294 296 300 301 292 285 282 280 275 271 267 264 261 258 256 255
266 257 265 269 271 285 286 284 281 280 280 280 287 289 292 293 294 297 299 302 302 300 302 308 317 324 327 330 334 333 330 331 330 331 332 331 326 323 321 321 325 329 326 325 326 327 330 328 324 319 315 307 299 295 296 301 306 318 318 282 290 300 301 291 305 297 319 20 293 298 293 298 304 292 286 282 279 275 272 268 265 262 259 260 260
258 262 264 265 273 278 288 287 278 274 272 271 278 286 292 293 291 288 288 292 291 293 300 308 315 320 324 328 328 328 327 328 330 332 331 327 325 324 322 321 323 326 329 330 331 333 333 330 325 321 320 316 310 305 304 304 306 311 298 290 293 309 308 305 300 330 328 331 303 291 295 298 293 292 287 282 279 277 272 268 266 266 266 nan nan
255 262 261 262 276 279 284 293 278 265 260 264 272 288 295 292 289 286 286 286 284 287 297 309 320 320 317 318 324 326 326 328 327 328 327 329 329 327 323 322 324 333 337 335 335 338 335 329 326 322 323 319 315 311 309 308 309 313 299 293 298 300 300 300 312 313 316 310 304 299 295 297 286 287 287 283 280 276 273 272 271 nan nan nan nan
250 256 263 269 276 275 272 285 270 266 250 262 280 292 292 287 285 285 283 285 283 286 295 310 318 315 318 318 321 324 322 324 322 326 329 330 331 330 326 327 329 335 339 337 339 339 334 329 326 325 323 320 316 314 314 313 317 318 301 302 303 302 309 303 311 319 309 301 302 300 300 299 287 285 284 283 281 277 275 275 nan nan nan nan nan
250 255 261 269 276 268 259 257 266 264 252 264 292 297 294 291 285 285 286 285 284 288 291 300 305 311 318 320 322 323 319 318 320 329 332 333 329 323 325 330 334 338 341 340 341 340 333 328 329 328 324 322 319 317 319 322 328 322 302 304 307 310 311 310 315 323 301 298 301 302 301 293 285 283 279 279 279 279 nan nan nan nan nan nan nan
247 251 257 266 275 273 257 250 262 269 270 266 284 293 302 301 295 295 294 290 291 289 293 294 302 310 320 324 322 323 318 318 325 332 331 329 322 321 324 332 338 341 341 341 342 339 333 331 332 332 329 325 322 322 324 330 342 321 299 302 299 301 305 318 314 304 300 300 301 303 302 291 287 284 283 282 282 nan nan nan nan nan nan nan nan
240 249 256 260 266 271 264 250 252 266 274 276 284 289 302 302 300 300 296 296 297 295 291 298 306 313 320 327 325 317 318 316 328 333 332 329 325 322 324 332 337 339 342 342 342 339 334 332 334 337 336 334 328 327 326 337 349 320 296 298 298 301 320 322 304 303 305 304 302 303 299 292 288 285 283 283 nan nan nan nan nan nan nan nan nan
226 243 247 253 262 268 276 251 261 278 287 283 275 278 285 294 289 294 296 295 294 295 297 301 304 312 317 322 325 321 317 315 332 339 336 331 330 320 325 330 337 341 344 342 341 339 337 333 338 340 344 343 338 334 328 338 359 313 294 294 296 313 316 316 311 311 309 306 305 305 297 294 292 288 284 nan nan nan nan nan nan nan nan nan nan
217 229 244 255 256 263 272 273 264 274 285 267 269 270 271 278 273 274 276 283 288 294 290 291 301 304 317 319 323 323 329 323 343 338 339 334 326 323 325 331 337 342 345 343 339 340 339 338 340 346 352 353 348 346 339 341 354 310 293 292 307 328 320 317 314 313 309 311 313 309 301 299 296 292 nan nan nan nan nan nan nan nan nan nan nan
209 224 230 247 241 252 269 274 275 273 278 274 274 270 276 257 265 265 264 279 282 286 283 292 294 305 314 323 327 332 340 336 344 342 340 337 321 325 326 332 336 340 346 343 340 342 345 343 348 351 359 2 357 352 341 349 349 318 293 305 321 335 319 317 314 313 312 313 316 308 308 304 299 nan nan nan nan nan nan nan nan nan nan nan nan
212 218 228 228 239 245 261 261 274 283 273 267 268 269 264 254 243 251 255 263 269 275 280 286 292 305 313 323 331 342 338 328 356 355 341 322 317 328 328 330 335 338 344 342 344 347 350 352 353 356 0 nan 357 359 339 345 342 329 320 322 323 322 312 309 311 315 317 311 312 306 305 300 nan nan nan nan nan nan nan nan nan nan nan nan nan
211 216 222 228 235 245 254 258 269 270 269 254 261 266 264 246 239 245 255 261 266 267 273 280 284 299 313 325 341 339 333 339 340 337 315 321 323 320 317 321 323 334 341 343 338 344 345 348 346 348 354 nan nan 357 341 335 328 325 323 329 323 318 312 308 311 316 315 311 311 303 302 nan nan nan nan nan nan nan nan nan nan nan nan nan nan
210 217 225 231 236 244 247 251 260 262 264 253 266 275 280 255 242 239 249 258 265 267 272 279 285 302 311 329 346 334 332 325 318 334 344 328 332 320 320 321 327 332 336 344 340 340 340 348 nan nan nan nan nan nan nan 328 327 333 331 326 321 317 316 314 312 312 312 311 307 302 nan nan nan nan nan nan nan nan nan nan nan nan nan nan nan
210 216 222 228 234 242 242 247 251 254 260 262 267 279 289 274 254 244 246 256 263 266 270 275 284 300 314 326 320 331 333 319 328 345 353 340 331 324 324 323 323 327 330 343 340 340 nan 347 nan nan nan nan nan nan nan nan 324 333 327 326 323 322 318 314 314 314 314 313 nan nan nan nan nan nan nan nan nan nan nan nan nan nan nan nan nan
209 220 220 229 233 244 244 245 245 250 252 264 266 280 288 289 273 258 247 254 264 263 264 271 278 295 308 297 303 315 322 319 329 341 353 336 333 327 321 320 328 327 327 342 340 336 nan nan nan nan nan nan nan nan nan 309 321 330 336 328 326 324 321 319 317 317 nan nan nan nan nan nan nan nan nan nan nan nan nan nan nan nan nan nan nan
212 218 217 229 235 242 245 251 249 254 251 260 265 272 289 291 281 263 244 253 254 261 264 267 275 288 294 290 296 303 319 313 321 340 346 343 329 319 321 322 326 329 324 nan 342 333 nan nan nan nan nan nan 335 nan 318 319 319 330 331 331 330 328 322 325 315 nan nan nan nan nan nan nan nan nan nan nan nan nan nan nan nan nan nan nan nan
212 215 218 224 233 244 246 255 256 257 256 264 265 272 280 290 286 268 241 250 246 256 256 262 269 275 280 290 301 310 324 311 323 334 341 337 324 325 329 323 326 329 323 334 343 326 nan nan 336 nan nan nan nan 327 323 323 316 318 327 331 326 327 328 325 311 311 nan nan nan nan nan nan nan nan nan nan nan nan nan nan nan nan nan nan nan
211 213 213 223 229 244 245 250 259 258 264 267 272 272 275 281 288 272 247 244 245 251 253 260 264 270 275 288 302 311 323 313 324 329 335 326 323 324 327 324 324 329 320 nan 335 321 325 331 317 nan nan 321 321 317 323 320 318 315 325 329 331 324 325 324 nan nan nan nan nan nan nan nan nan nan nan nan nan nan nan nan nan nan nan nan nan
212 213 210 218 230 240 244 247 253 257 262 267 275 273 272 273 284 280 255 242 239 247 249 254 262 268 274 276 292 304 307 307 315 322 316 315 319 311 313 305 308 318 315 319 328 315 318 321 314 nan 318 311 313 322 321 319 319 319 323 331 326 322 323 319 nan nan nan nan nan nan nan nan nan nan nan nan nan nan nan nan nan nan nan nan nan
212 214 213 216 231 237 239 242 252 254 259 268 272 272 269 271 279 276 258 244 236 241 246 245 258 260 273 279 285 303 305 301 308 314 314 319 317 315 307 310 311 319 310 318 317 313 316 316 nan 319 309 306 313 313 316 317 317 319 324 326 327 325 325 321 nan nan nan nan nan nan nan nan nan nan nan nan nan nan nan nan nan nan nan nan nan
216 213 217 216 225 231 232 235 247 253 261 264 268 268 268 267 273 270 265 244 235 240 242 241 253 255 268 273 290 302 305 297 303 313 314 319 316 314 312 310 316 312 311 313 306 308 311 313 310 299 304 306 311 311 317 319 318 321 321 318 316 nan nan nan nan nan nan nan nan nan nan nan nan nan nan nan nan nan nan nan nan nan nan nan nan
219 216 222 223 225 230 233 234 245 251 260 264 266 263 265 269 272 270 275 248 234 236 243 242 247 251 264 275 291 299 305 301 304 310 313 316 316 315 321 313 310 312 304 302 300 303 312 302 300 306 307 311 311 316 328 315 323 320 318 313 315 nan nan nan nan nan nan nan nan nan nan nan nan nan nan nan nan nan nan nan nan nan nan nan nan
228 222 225 227 228 231 234 234 245 251 253 257 259 257 265 269 272 270 275 261 235 231 242 243 244 253 257 271 289 298 298 308 308 314 318 317 317 317 319 316 313 306 301 302 304 312 302 301 306 309 307 315 310 319 311 312 309 302 nan nan nan nan nan nan nan nan nan nan nan nan nan nan nan nan nan nan nan nan nan nan nan nan nan nan nan
229 227 229 228 229 234 235 234 244 249 251 254 256 255 263 263 270 270 279 265 240 227 237 240 241 249 253 268 289 294 296 310 311 317 323 322 315 320 316 319 309 306 306 307 307 305 302 308 310 307 313 305 317 312 307 310 311 310 313 nan nan nan nan nan nan nan nan nan nan nan nan nan nan nan nan nan nan nan nan nan nan nan nan nan nan
227 227 229 226 228 231 232 231 237 242 247 250 253 252 260 260 266 271 272 269 241 226 233 237 240 245 251 268 285 288 298 314 312 316 330 320 321 317 nan 313 311 312 307 309 310 303 305 308 306 306 310 305 306 305 310 311 303 nan nan nan nan nan nan nan nan nan nan nan nan nan nan nan nan nan nan nan nan nan nan nan nan nan nan nan nan
226 227 228 220 220 225 229 230 233 238 243 247 250 249 256 258 262 271 272 269 241 222 231 235 238 244 249 273 286 287 304 310 310 318 328 323 320 321 317 313 315 313 307 311 311 305 305 304 300 294 295 296 296 306 311 307 nan nan nan nan nan 314 nan nan nan nan nan nan nan nan nan nan nan nan nan nan nan nan nan nan nan nan nan nan nan
227 221 224 221 219 224 226 228 230 233 237 242 245 246 253 256 262 270 272 268 242 225 230 233 238 244 252 271 282 285 304 300 315 320 326 325 318 319 314 318 318 309 309 314 311 305 302 297 291 297 294 294 293 298 299 nan nan nan nan nan nan nan nan nan nan nan nan nan nan nan nan nan nan nan nan nan nan nan nan nan nan nan nan nan nan
229 221 217 218 219 224 226 230 230 231 233 238 240 245 254 256 257 267 270 265 245 231 233 235 237 239 254 268 278 282 302 305 321 324 328 328 319 315 316 320 315 311 308 316 307 297 290 287 293 293 298 298 297 297 nan nan nan nan nan nan nan nan nan nan nan nan nan nan nan nan nan nan nan nan nan nan nan nan nan nan nan nan nan nan nan
232 226 223 218 216 221 226 229 229 229 229 232 235 239 247 252 256 262 261 260 243 233 234 237 236 237 246 260 267 281 302 309 323 328 329 325 313 315 318 322 315 314 310 304 292 291 292 294 294 293 291 293 300 306 303 nan nan nan nan nan nan nan nan nan nan nan nan nan nan nan nan nan nan nan nan nan nan nan nan nan nan nan nan nan nan
246 240 236 229 220 220 224 228 229 229 227 230 233 237 241 249 253 255 260 256 235 225 226 234 235 239 248 251 263 275 300 313 327 332 332 324 318 317 318 322 316 312 311 303 301 293 293 299 298 298 296 292 299 303 306 nan nan nan nan nan nan nan nan nan nan nan nan nan nan nan nan nan nan nan nan nan nan nan nan nan nan nan nan nan nan
249 248 244 237 226 222 223 228 228 226 224 227 232 233 237 244 248 253 254 254 242 231 226 224 227 237 251 250 258 271 299 313 333 334 332 323 321 320 318 318 316 311 306 307 304 302 298 302 302 298 297 303 305 302 304 305 nan nan nan nan nan nan nan nan nan nan nan nan nan nan nan nan nan nan nan nan nan nan nan nan nan nan nan nan nan
250 251 251 246 234 233 226 225 227 225 220 224 230 232 235 241 246 251 255 255 245 247 236 224 223 230 245 250 258 270 297 311 329 334 330 324 320 318 316 317 318 315 301 309 311 307 304 304 304 303 308 309 308 303 307 nan 318 nan 312 nan nan nan nan nan nan nan nan nan nan nan nan nan nan nan nan nan nan nan nan nan nan nan nan nan nan
250 248 250 250 244 239 231 227 225 225 222 223 230 232 233 239 247 254 262 260 255 253 248 235 233 237 247 250 259 270 292 306 322 329 325 323 322 320 318 320 321 317 309 313 314 315 311 312 310 309 312 309 303 301 307 314 323 322 334 310 309 312 316 nan nan nan nan nan nan nan nan nan nan nan nan nan nan nan nan nan nan nan nan nan nan
245 245 246 247 245 241 237 232 227 226 226 227 232 233 233 235 246 251 253 251 241 232 233 235 238 243 248 254 260 268 287 304 314 323 320 323 323 320 320 319 319 317 313 311 314 319 318 314 311 312 313 311 306 311 319 321 317 325 329 318 313 317 315 nan nan nan nan nan nan nan nan nan nan nan nan nan nan nan nan nan nan nan nan nan nan
243 245 247 247 248 246 245 238 230 227 227 231 233 232 232 235 241 244 247 245 238 231 234 237 241 246 254 255 258 266 281 301 308 318 316 320 323 322 320 318 317 318 315 312 316 317 318 311 313 316 310 305 308 313 320 317 323 321 319 318 321 321 318 nan nan nan nan nan nan nan nan nan nan nan nan nan nan nan nan nan nan nan nan nan nan
244 247 248 249 249 248 249 240 231 232 234 242 240 233 231 234 235 237 242 240 239 234 232 237 242 248 256 254 256 265 276 297 307 310 313 321 323 323 321 319 318 318 316 314 314 317 317 315 314 312 311 309 309 314 316 319 319 318 316 322 319 318 315 nan nan nan nan nan nan nan nan nan nan nan nan nan nan nan nan nan nan nan nan nan nan
243 245 246 245 248 250 249 243 235 233 241 251 246 237 232 233 232 234 238 240 237 239 237 243 245 249 255 257 255 262 274 290 303 310 313 320 324 324 322 322 321 316 317 317 316 316 316 319 322 319 313 308 309 312 317 317 317 316 316 316 317 317 314 314 316 320 nan nan nan nan nan nan nan nan nan nan nan nan nan nan nan nan nan nan nan
240 244 242 242 244 246 247 245 240 236 244 253 244 236 233 232 230 232 235 238 238 242 242 246 249 252 256 260 258 260 272 287 298 305 311 320 323 324 322 320 320 316 318 318 319 316 316 315 320 318 312 310 310 316 312 308 311 310 313 315 317 318 317 316 319 325 nan nan nan nan nan nan nan nan nan nan nan nan nan nan nan nan nan nan nan